Retour au catalogue

FENGYUN 1C DEB

ActifSSO
NORAD 30472·DEBRIS·🇨🇳 China

Lancé May 10, 1999 depuis Taiyuan Satellite Launch Center

Loading…

Prochains Passages (prochaines 24 heures)

TLE

FraisSource: Space-Track

Époque: Sep 14, 2026, 06:46 UTC

1 30472U 99025AGK 26257.28213402  .00005361  00000-0  11497-2 0  9994
2 30472  98.6609  13.7880 0033818 314.6990  75.3383 14.58738212 20471

Suivez FENGYUN 1C DEB en temps réel avec AllMySat

Download on the App Store